[[{"header":{"parameterUnit":"m.s-1","parameterCategory":1,"la1":30.2991,"la2":30.254,"lo1":-89.0895,"lo2":-89.0444,"dy":0.0017,"dx":0.0017,"nx":28,"ny":28,"refTime":"2025-06-13T03:00:00:Z","depth":0,"parameterNumber":2,"parameterNumberName":"U-component_of_WINDS"},"data":[0,0,0,0,0,0,0,0,0,0,0,0,0,0,0,0,0,0,0,0,0,0,0,0,0,0,0,0,0,0,0,0,0,0,0,0,0,0,0,0,0,0,0,0,0,0,0,0,0,0,0,0,0,0,0,0,0,0,1.7661,1.7662,0,1.7718,1.7719,1.7719,1.7717,1.7716,1.7715,1.7714,1.7771,1.7774,1.7776,0,0,0,0,0,0,0,0,0,0,0,0,0,1.7546,1.7548,1.7661,1.7662,1.7662,1.7718,1.7719,1.7719,1.7717,1.7716,1.7715,1.7714,1.7771,1.7773,1.7776,0,0,0,0,0,0,0,0,0,0,0,0,0,1.7599,1.7549,1.7661,1.7668,1.7669,1.7718,1.7719,1.772,1.7717,1.7716,1.7715,1.7713,1.777,1.7773,1.7776,1.7822,0,0,1.7787,1.7788,0,0,0,0,0,0,0,0,1.7596,1.7603,1.7666,1.7667,1.7669,1.7709,1.7699,1.7754,1.7717,1.7699,1.7714,1.7713,1.7751,1.7756,1.777,1.7824,1.7827,1.7787,1.7789,1.7791,1.7792,0,0,0,0,0,0,0,1.7592,1.76,1.7683,1.7667,1.7669,1.7667,1.7673,1.7709,1.7731,1.77,1.77,1.7707,1.7752,1.7766,1.7771,1.7828,1.7787,1.779,1.7792,1.7793,1.7918,1.7919,0,0,0,0,0,0,1.7587,1.7597,1.7682,1.7685,1.7628,1.767,1.7677,1.7697,1.7731,1.7735,1.7708,1.7707,1.7761,1.7767,1.7773,1.7825,1.7791,1.7794,1.7796,1.7917,1.7918,1.792,0,0,0,0,0,0,1.7585,1.7595,1.7679,1.7641,1.7652,1.7673,1.7696,1.7699,1.7713,1.7737,1.774,1.7719,1.776,1.7768,1.7809,1.7827,1.7795,1.7798,1.7915,1.7917,1.7919,1.7932,0,0,0,0,0,0,1.7581,1.7594,1.7612,1.7642,1.7654,1.7715,1.7697,1.7701,1.7719,1.7718,1.7748,1.7751,1.776,1.7804,1.7812,1.7831,1.7801,1.7914,1.7916,1.7918,1.793,1.7934,1.7938,0,0,0,0,0,1.7577,1.7614,1.7613,1.7624,1.7678,1.7716,1.7723,1.7733,1.7721,1.7739,1.7753,1.7751,1.7824,1.7808,1.7817,1.7838,1.7913,1.7915,1.7918,1.7928,1.7933,1.7938,0,0,0,0,0,0,1.7587,1.7618,1.7618,1.7666,1.7688,1.7716,1.7739,1.7738,1.7765,1.7762,1.7773,1.7779,1.7819,1.7833,1.7814,1.7882,1.7867,1.7872,1.7871,1.7876,1.788,1.7875,1.7804,0,0,0,0,0,1.7595,1.7625,1.765,1.769,1.7701,1.7718,1.7735,1.774,1.7764,1.7774,1.7791,1.7814,1.7841,1.786,1.7887,1.7932,1.7937,1.7951,1.7955,1.7958,1.7961,1.7983,1.7989,1.7929,1.7929,1.7929,0,0,1.7611,1.7632,1.765,1.7692,1.771,1.7739,1.7726,1.7758,1.7779,1.7779,1.7817,1.7831,1.7856,1.7898,1.7918,1.7911,1.7979,1.7961,1.7964,1.7966,1.7987,1.7992,1.7997,1.7931,1.7931,1.793,0,0,1.7655,1.7675,1.7708,1.7726,1.7754,1.7764,1.7772,1.7799,1.7808,1.7847,1.7846,1.7871,1.792,1.7937,1.7952,1.7999,1.7996,1.8008,1.8027,1.8048,1.8053,1.8057,1.8071,1.8076,1.8011,1.8012,1.8012,0,1.7671,1.7716,1.7726,1.7757,1.7774,1.7774,1.7807,1.7824,1.7859,1.787,1.7862,1.792,1.7938,1.7983,1.7994,1.8007,1.8014,1.8004,1.8052,1.8056,1.806,1.8073,1.8079,1.8012,1.8012,1.8012,1.8012,0,1.7733,1.7764,1.7787,1.782,1.784,1.7872,1.7885,1.7904,1.7906,1.7917,1.7955,1.7976,1.8006,1.8017,1.802,1.8061,1.8055,1.805,1.8034,1.8066,1.8079,1.8085,1.8014,1.8014,1.8013,1.8013,0,0,1.7786,1.7821,1.783,1.7843,1.7872,1.7895,1.7926,1.7955,1.797,1.7993,1.8017,1.8057,1.8051,1.8068,1.8073,1.8092,1.8124,1.8083,1.8084,1.8088,1.8167,1.817,1.8176,1.8123,1.8124,1.8125,1.8164,0,1.783,1.7885,1.7894,1.7941,1.7968,1.7967,1.7993,1.8013,1.8023,1.8046,1.8058,1.8085,1.8076,1.8085,1.8104,1.8116,1.814,1.8114,1.8144,1.8145,1.8136,1.8183,1.8187,1.8223,1.8169,1.817,1.8171,0,1.7891,1.7914,1.7965,1.7987,1.7998,1.8022,1.8047,1.807,1.8091,1.8097,1.8115,1.8117,1.8147,1.8131,1.8171,1.8153,1.8166,1.8173,1.8175,1.8177,1.8159,1.8184,1.8235,1.8239,1.8179,1.8178,1.8178,0,1.792,1.7965,1.8,1.8012,1.804,1.8056,1.8068,1.8088,1.8104,1.8126,1.8136,1.8161,1.8175,1.8194,1.8202,1.819,1.824,1.8226,1.8244,1.8243,1.8254,1.8253,1.8305,1.8265,1.8265,1.8265,1.8264,0,1.7969,1.7999,1.8013,1.8035,1.8067,1.8076,1.8107,1.8119,1.8136,1.8158,1.816,1.818,1.8191,1.8212,1.8219,1.8249,1.8256,1.826,1.8261,1.8259,1.8258,1.8266,1.8263,1.8266,1.8266,1.8265,1.8265,0,1.8007,1.8019,1.8056,1.8079,1.8085,1.8108,1.8126,1.8146,1.8155,1.8183,1.819,1.8204,1.823,1.824,1.8271,1.8275,1.8309,1.831,1.8302,1.8302,1.8319,1.8316,1.8377,1.8384,1.8341,1.8342,1.8342,0,1.8036,1.8059,1.8083,1.8098,1.8111,1.8135,1.8151,1.8159,1.8175,1.8199,1.8215,1.824,1.8261,1.8301,1.8314,1.8337,1.8336,1.8356,1.834,1.8336,1.8334,1.8331,1.8333,1.8358,1.8359,1.8359,1.8359,0,1.8086,1.809,1.8113,1.8136,1.8155,1.8174,1.8193,1.8205,1.8216,1.8233,1.8259,1.8275,1.8305,1.8329,1.8353,1.8364,1.8363,1.8364,1.8369,1.8367,1.836,1.8362,1.8308,1.8363,1.8362,1.8362,1.8362,1.8362,1.8119,1.8138,1.8157,1.8182,1.8196,1.8213,1.8232,1.8243,1.8264,1.829,1.8293,1.832,1.8338,1.8369,1.8381,1.8401,1.8396,1.8404,1.8406,1.8407,1.8407,1.8358,1.8406,1.8406,1.8406,1.8405,1.8405,0,1.8167,1.8178,1.8201,1.8226,1.8245,1.8242,1.8262,1.8277,1.8301,1.8318,1.8337,1.8365,1.8388,1.8401,1.8424,1.8437,1.8437,1.8442,1.8441,1.8443,1.8411,1.8404,1.8442,1.8442,1.8442,1.8442,1.8442,1.8442,1.8193,1.8224,1.823,1.8267,1.8279,1.8305,1.8316,1.833,1.8344,1.8375,1.8393,1.8402,1.8417,1.844,1.846,1.8463,1.8471,1.8476,1.8479,1.8449,1.8445,1.8442,1.8434,1.8478,1.8478,1.8508,1.8509,1.8509]},{"header":{"parameterUnit":"m.s-1","parameterCategory":1,"la1":30.2991,"la2":30.254,"lo1":-89.0895,"lo2":-89.0444,"dy":0.0017,"dx":0.0017,"nx":28,"ny":28,"refTime":"2025-06-13T03:00:00:Z","depth":0,"parameterNumber":3,"parameterNumberName":"V-component_of_WINDS"},"data":[0,0,0,0,0,0,0,0,0,0,0,0,0,0,0,0,0,0,0,0,0,0,0,0,0,0,0,0,0,0,0,0,0,0,0,0,0,0,0,0,0,0,0,0,0,0,0,0,0,0,0,0,0,0,0,0,0,0,3.4752,3.4753,0,3.4894,3.4895,3.4897,3.4883,3.4881,3.4879,3.4877,3.5018,3.5024,3.5029,0,0,0,0,0,0,0,0,0,0,0,0,0,3.4464,3.4469,3.4752,3.4754,3.4755,3.4893,3.4895,3.4897,3.4884,3.4881,3.4878,3.4876,3.5016,3.5023,3.503,0,0,0,0,0,0,0,0,0,0,0,0,0,3.4596,3.4471,3.4751,3.4765,3.4768,3.4893,3.4895,3.4898,3.4884,3.4881,3.4878,3.4874,3.5014,3.5022,3.5031,3.515,0,0,3.5057,3.5061,0,0,0,0,0,0,0,0,3.4588,3.4606,3.4761,3.4765,3.4768,3.4867,3.4846,3.4982,3.4885,3.484,3.4877,3.4873,3.497,3.4982,3.5016,3.5157,3.5163,3.5058,3.5063,3.5067,3.507,0,0,0,0,0,0,0,3.4579,3.46,3.4808,3.4764,3.4768,3.4763,3.4778,3.4871,3.4922,3.4844,3.4843,3.486,3.4971,3.5008,3.5019,3.5165,3.5058,3.5066,3.5071,3.5074,3.5407,3.5411,0,0,0,0,0,0,3.4567,3.4592,3.4803,3.4812,3.4668,3.477,3.4787,3.4839,3.4921,3.493,3.4863,3.4859,3.4994,3.5009,3.5024,3.5168,3.5067,3.5075,3.508,3.5404,3.5408,3.5412,0,0,0,0,0,0,3.4561,3.4586,3.4797,3.4702,3.4729,3.4779,3.4837,3.4843,3.488,3.4935,3.4943,3.4891,3.4992,3.5012,3.5118,3.5172,3.5079,3.5087,3.54,3.5405,3.541,3.5457,0,0,0,0,0,0,3.4553,3.4584,3.4632,3.4703,3.4734,3.4892,3.484,3.4848,3.4895,3.4891,3.4964,3.4973,3.4991,3.5106,3.5127,3.5183,3.5094,3.5395,3.5402,3.5408,3.5451,3.5463,3.5474,0,0,0,0,0,3.4543,3.4639,3.4634,3.466,3.4794,3.4895,3.4912,3.4933,3.49,3.4946,3.4982,3.497,3.5163,3.5117,3.5141,3.52,3.5392,3.54,3.5408,3.5445,3.5461,3.5473,0,0,0,0,0,0,3.4571,3.4648,3.4644,3.4766,3.4824,3.4892,3.4952,3.4948,3.5016,3.5009,3.5031,3.5047,3.5154,3.5188,3.5135,3.5318,3.5273,3.5286,3.5293,3.5308,3.5319,3.5309,3.5101,0,0,0,0,0,3.4592,3.4668,3.4731,3.4833,3.4862,3.4902,3.4947,3.4957,3.5018,3.5042,3.5085,3.5142,3.5215,3.5263,3.5334,3.5455,3.5469,3.5507,3.5519,3.5528,3.5539,3.5603,3.562,3.5439,3.5439,3.5439,0,0,3.4635,3.4687,3.4734,3.484,3.4886,3.4963,3.4923,3.5007,3.5063,3.5054,3.5157,3.5191,3.5256,3.537,3.5422,3.5401,3.5592,3.5538,3.5545,3.5552,3.5614,3.5631,3.5646,3.5445,3.5444,3.5443,0,0,3.4753,3.4801,3.489,3.4936,3.5007,3.5032,3.5053,3.5122,3.5144,3.5248,3.5242,3.5309,3.5435,3.5482,3.5522,3.5654,3.5646,3.5676,3.5737,3.58,3.5814,3.5827,3.5873,3.5889,3.5687,3.5688,3.5688,0,3.4798,3.4915,3.4936,3.502,3.5066,3.5061,3.515,3.5194,3.5283,3.5314,3.5289,3.5446,3.549,3.5614,3.5646,3.5679,3.5702,3.5669,3.581,3.5823,3.5836,3.588,3.5897,3.5691,3.569,3.569,3.569,0,3.4965,3.5047,3.511,3.5197,3.525,3.5336,3.5368,3.5418,3.5424,3.5451,3.5556,3.5608,3.5688,3.5718,3.5724,3.5842,3.5827,3.5806,3.5761,3.5856,3.5897,3.5915,3.5695,3.5694,3.5693,3.5693,0,0,3.5107,3.5203,3.5226,3.5264,3.534,3.5403,3.5487,3.5566,3.5609,3.5669,3.574,3.5846,3.5826,3.5872,3.5882,3.5937,3.6037,3.591,3.5911,3.5931,3.6168,3.6183,3.6203,3.6032,3.6035,3.6038,3.6162,0,3.5232,3.5384,3.5404,3.5537,3.5611,3.5607,3.568,3.5733,3.5761,3.5826,3.5855,3.593,3.5899,3.5926,3.5981,3.6014,3.6085,3.6005,3.6096,3.6099,3.608,3.6225,3.6242,3.6357,3.6179,3.6182,3.6184,0,3.5399,3.5465,3.5606,3.567,3.5702,3.5768,3.5841,3.5904,3.5963,3.5979,3.6028,3.6032,3.6117,3.6068,3.6184,3.6129,3.6167,3.6189,3.6193,3.6203,3.6147,3.6237,3.6395,3.6412,3.621,3.6208,3.6206,0,3.5487,3.561,3.5711,3.5744,3.5821,3.5867,3.5901,3.5957,3.6003,3.6066,3.6095,3.6167,3.6206,3.6261,3.6282,3.6245,3.6397,3.635,3.6411,3.6411,3.6444,3.6441,3.6609,3.6469,3.6468,3.6468,3.6468,0,3.5624,3.571,3.5751,3.5813,3.5908,3.5929,3.6022,3.6054,3.6104,3.617,3.617,3.6231,3.6256,3.6321,3.6338,3.6431,3.6449,3.6463,3.6466,3.6463,3.6461,3.6488,3.648,3.6473,3.6472,3.6471,3.647,0,3.5739,3.577,3.5878,3.5942,3.596,3.6027,3.6081,3.614,3.6165,3.6249,3.6269,3.631,3.6386,3.6413,3.6505,3.6516,3.6624,3.6621,3.6605,3.6605,3.6664,3.6658,3.6855,3.6881,3.6724,3.6726,3.6727,0,3.5824,3.5891,3.5961,3.6006,3.6042,3.6114,3.6161,3.6182,3.623,3.6301,3.6351,3.6427,3.6489,3.661,3.6647,3.6717,3.6715,3.6779,3.6725,3.6719,3.6715,3.6711,3.6716,3.6789,3.679,3.6792,3.6793,0,3.5973,3.5984,3.6052,3.6125,3.618,3.6238,3.6294,3.633,3.636,3.6413,3.6492,3.654,3.6634,3.6709,3.678,3.6813,3.6807,3.6809,3.6827,3.6824,3.6812,3.6818,3.6631,3.6805,3.6804,3.6803,3.6802,3.6802,3.6075,3.6133,3.6192,3.6266,3.6311,3.6363,3.642,3.6453,3.6519,3.6598,3.6606,3.669,3.6745,3.684,3.6876,3.6941,3.6923,3.6949,3.6955,3.6961,3.6965,3.6801,3.6954,3.6954,3.6953,3.6953,3.6953,0,3.6223,3.626,3.6328,3.6407,3.6465,3.6455,3.6516,3.6565,3.6639,3.6691,3.6752,3.6841,3.6913,3.6954,3.7026,3.7069,3.7068,3.7087,3.7084,3.7091,3.6978,3.6955,3.7087,3.7087,3.7087,3.7086,3.7086,3.7086,3.6307,3.6404,3.6422,3.654,3.6576,3.6659,3.6694,3.6741,3.6783,3.6882,3.6942,3.6969,3.7016,3.7091,3.7155,3.7165,3.7191,3.7212,3.722,3.7113,3.71,3.7086,3.7065,3.7218,3.7218,3.7328,3.7329,3.733]}]]